[[{"header":{"parameterUnit":"m.s-1","parameterCategory":2,"la1":30.2991,"la2":30.254,"lo1":-89.0895,"lo2":-89.0444,"dy":0.0017,"dx":0.0017,"nx":28,"ny":28,"refTime":"2024-10-13T21:00:00:Z","depth":"0","parameterNumber":2,"parameterNumberName":"U-component_of_CURRENTS"},"data":[0,0,0,0,0,0,0,0,0,0,0,0,0,0,0,0,0,0,0,0,0,0,0,0,0,0,0,0,0,0,0,0,0,0,0,0,0,0,0,0,0,0,0,0,0,0,0,0,0,0,0,0,0,0,0,0,0,0,0.1941,0.1941,0,0.194,0.194,0.194,0.1975,0.1976,0.1976,0.1977,0.2012,0.2012,0.2012,0,0,0,0,0,0,0,0,0,0,0,0,0,0.1968,0.1967,0.1941,0.1941,0.1941,0.194,0.194,0.194,0.1975,0.1976,0.1977,0.1977,0.2012,0.2012,0.2012,0,0,0,0,0,0,0,0,0,0,0,0,0,0.1962,0.1967,0.1941,0.1957,0.1959,0.194,0.194,0.194,0.1974,0.1976,0.1977,0.1978,0.2012,0.2012,0.2013,0.199,0,0,0.2013,0.2013,0,0,0,0,0,0,0,0,0.1962,0.1961,0.1955,0.1956,0.1958,0.1958,0.1962,0.1958,0.1974,0.197,0.1977,0.1979,0.1996,0.1997,0.1996,0.1991,0.1993,0.2013,0.2013,0.2014,0.2014,0,0,0,0,0,0,0,0.1962,0.1961,0.1942,0.1955,0.1956,0.1962,0.1963,0.1961,0.1977,0.197,0.1972,0.197,0.1997,0.1995,0.1997,0.1993,0.2013,0.2014,0.2014,0.2014,0.2027,0.2027,0,0,0,0,0,0,0.1959,0.1961,0.1942,0.1942,0.1961,0.1961,0.1961,0.1957,0.1977,0.198,0.1969,0.1971,0.1994,0.1996,0.1998,0.2014,0.2014,0.2014,0.2014,0.2027,0.2027,0.2028,0,0,0,0,0,0,0.1959,0.1957,0.1942,0.1951,0.1949,0.1959,0.1954,0.1957,0.1957,0.1975,0.198,0.1966,0.1995,0.1998,0.201,0.2014,0.2014,0.2014,0.2027,0.2027,0.2027,0.2018,0,0,0,0,0,0,0.196,0.1957,0.1947,0.195,0.1949,0.1931,0.1953,0.1956,0.1952,0.1956,0.1974,0.1979,0.1996,0.2009,0.201,0.2014,0.2014,0.2027,0.2027,0.2027,0.2018,0.2018,0.2018,0,0,0,0,0,0.1961,0.1941,0.1947,0.1944,0.1937,0.1931,0.193,0.1942,0.1951,0.1947,0.197,0.1978,0.2013,0.2009,0.201,0.2015,0.2026,0.2027,0.2027,0.2018,0.2018,0.2018,0,0,0,0,0,0,0.1935,0.1943,0.1949,0.1929,0.1931,0.1936,0.1928,0.1935,0.1946,0.1953,0.1975,0.1981,0.1998,0.2002,0.1998,0.2021,0.2022,0.2023,0.2015,0.2015,0.2015,0.2015,0.2015,0,0,0,0,0,0.1926,0.1919,0.1927,0.1907,0.1911,0.1918,0.1914,0.1924,0.1934,0.194,0.1955,0.1974,0.1997,0.2003,0.2021,0.202,0.2037,0.2026,0.2026,0.2025,0.2027,0.2057,0.206,0.2029,0.2029,0.2029,0,0,0.1903,0.191,0.19,0.1902,0.1905,0.1904,0.1919,0.1913,0.1917,0.1941,0.1949,0.1973,0.1999,0.2015,0.2022,0.2019,0.2044,0.2026,0.2026,0.2027,0.2058,0.2061,0.2064,0.2029,0.2029,0.2029,0,0,0.1864,0.1868,0.1856,0.1864,0.1872,0.1882,0.1879,0.1888,0.1901,0.1907,0.194,0.1966,0.1979,0.201,0.2025,0.2029,0.2046,0.2032,0.2025,0.2055,0.2058,0.2061,0.2088,0.2093,0.2027,0.2027,0.2027,0,0.1842,0.1829,0.1848,0.1848,0.1851,0.1872,0.1865,0.1877,0.1889,0.1903,0.191,0.196,0.198,0.2017,0.2026,0.2029,0.2047,0.2023,0.2055,0.2058,0.2061,0.2088,0.2094,0.2026,0.2026,0.2026,0.2026,0,0.18,0.1797,0.179,0.1805,0.1811,0.1805,0.1833,0.1842,0.186,0.1878,0.1915,0.1948,0.1981,0.1993,0.2012,0.2046,0.2053,0.2056,0.2055,0.2064,0.2092,0.2098,0.2026,0.2026,0.2026,0.2026,0,0,0.1753,0.176,0.1763,0.1768,0.1792,0.1794,0.1809,0.1833,0.185,0.1872,0.1898,0.1944,0.1969,0.1989,0.2018,0.2044,0.2084,0.2056,0.2058,0.2081,0.215,0.2166,0.2174,0.2092,0.2093,0.2094,0.2161,0,0.1722,0.171,0.1726,0.1721,0.1722,0.1758,0.1773,0.1802,0.1833,0.1863,0.1912,0.1945,0.1966,0.1987,0.2018,0.2073,0.21,0.2065,0.2139,0.2141,0.2153,0.2182,0.2126,0.2182,0.2168,0.2169,0.2169,0,0.169,0.1689,0.1675,0.1699,0.1704,0.1706,0.1748,0.1765,0.1821,0.1847,0.1891,0.193,0.1986,0.1994,0.2086,0.2063,0.2105,0.214,0.2144,0.2166,0.2168,0.2171,0.2195,0.2023,0.2179,0.2178,0.2178,0,0.1664,0.1664,0.1651,0.1656,0.168,0.1688,0.1706,0.1757,0.1779,0.1838,0.1861,0.193,0.197,0.2031,0.2108,0.21,0.2203,0.22,0.2252,0.2253,0.2224,0.2222,0.209,0.2257,0.2256,0.2256,0.2256,0,0.1642,0.1639,0.1635,0.1632,0.1633,0.1662,0.1677,0.1712,0.1756,0.1782,0.1849,0.1882,0.1981,0.2051,0.2112,0.2208,0.2208,0.2262,0.2276,0.222,0.2216,0.2081,0.2006,0.2259,0.2258,0.2258,0.2257,0,0.1634,0.1624,0.1615,0.162,0.1621,0.1627,0.1651,0.1666,0.1713,0.1748,0.1765,0.1857,0.1955,0.2053,0.2164,0.2217,0.2221,0.2328,0.2257,0.2263,0.2155,0.2083,0.2001,0.1961,0.2402,0.2403,0.2404,0,0.1629,0.1616,0.1604,0.1593,0.1594,0.1599,0.1605,0.1642,0.166,0.1728,0.1746,0.1846,0.1919,0.2096,0.2213,0.2336,0.2227,0.2349,0.2327,0.2145,0.2076,0.1994,0.196,0.2284,0.2284,0.2283,0.2283,0,0.1623,0.1613,0.1605,0.1579,0.1569,0.1566,0.1575,0.1582,0.1629,0.1669,0.1728,0.1785,0.1953,0.2068,0.2235,0.2302,0.2194,0.235,0.2173,0.1986,0.1877,0.1847,0.2236,0.2281,0.2281,0.2281,0.2281,0.2282,0.1621,0.1611,0.1586,0.1571,0.1549,0.1537,0.1546,0.1565,0.1597,0.1659,0.1702,0.178,0.1888,0.2125,0.2179,0.2166,0.2184,0.2118,0.2054,0.1993,0.1919,0.2308,0.2363,0.2363,0.2364,0.2364,0.2365,0,0.1619,0.1603,0.1579,0.1551,0.1527,0.1526,0.153,0.1544,0.1588,0.1637,0.1699,0.1739,0.1817,0.1883,0.1922,0.1855,0.1821,0.1773,0.1598,0.1592,0.194,0.1894,0.1833,0.1833,0.1834,0.1834,0.1834,0.1834,0.1614,0.1592,0.1579,0.1536,0.152,0.149,0.1499,0.1524,0.1556,0.1571,0.1585,0.1608,0.1555,0.1485,0.1401,0.1411,0.126,0.1254,0.1217,0.1374,0.1399,0.1422,0.1356,0.1184,0.1183,0.0846,0.0843,0.084]},{"header":{"parameterUnit":"m.s-1","parameterCategory":2,"la1":30.2991,"la2":30.254,"lo1":-89.0895,"lo2":-89.0444,"dy":0.0017,"dx":0.0017,"nx":28,"ny":28,"refTime":"2024-10-13T21:00:00:Z","depth":"0","parameterNumber":3,"parameterNumberName":"V-component_of_CURRENTS"},"data":[0,0,0,0,0,0,0,0,0,0,0,0,0,0,0,0,0,0,0,0,0,0,0,0,0,0,0,0,0,0,0,0,0,0,0,0,0,0,0,0,0,0,0,0,0,0,0,0,0,0,0,0,0,0,0,0,0,0,-0.0594,-0.0594,0,-0.0559,-0.0559,-0.0559,-0.0542,-0.0542,-0.0542,-0.0542,-0.0516,-0.0515,-0.0514,0,0,0,0,0,0,0,0,0,0,0,0,0,-0.0643,-0.0643,-0.0594,-0.0593,-0.0593,-0.056,-0.0559,-0.0558,-0.0542,-0.0542,-0.0542,-0.0542,-0.0516,-0.0515,-0.0514,0,0,0,0,0,0,0,0,0,0,0,0,0,-0.0616,-0.0642,-0.0594,-0.0581,-0.058,-0.056,-0.0559,-0.0558,-0.0542,-0.0542,-0.0542,-0.0542,-0.0516,-0.0515,-0.0514,-0.0506,0,0,-0.0511,-0.051,0,0,0,0,0,0,0,0,-0.0618,-0.0614,-0.0583,-0.0582,-0.058,-0.0556,-0.0567,-0.0541,-0.0542,-0.0556,-0.0542,-0.0542,-0.053,-0.0528,-0.052,-0.0504,-0.0503,-0.0511,-0.051,-0.051,-0.0509,0,0,0,0,0,0,0,-0.062,-0.0616,-0.058,-0.0583,-0.0581,-0.0577,-0.0573,-0.0562,-0.0543,-0.0555,-0.0553,-0.055,-0.0529,-0.0522,-0.052,-0.0503,-0.0511,-0.051,-0.0509,-0.0509,-0.0505,-0.0505,0,0,0,0,0,0,-0.0625,-0.0617,-0.0581,-0.0579,-0.06,-0.0576,-0.0571,-0.0563,-0.0543,-0.054,-0.055,-0.055,-0.0523,-0.0521,-0.0519,-0.0525,-0.051,-0.0508,-0.0508,-0.0504,-0.0505,-0.0506,0,0,0,0,0,0,-0.0626,-0.0622,-0.0582,-0.0598,-0.0593,-0.0575,-0.0566,-0.0562,-0.0556,-0.0539,-0.0537,-0.0548,-0.0523,-0.052,-0.0516,-0.0523,-0.0508,-0.0507,-0.0504,-0.0504,-0.0505,-0.0526,0,0,0,0,0,0,-0.0627,-0.0622,-0.0619,-0.0598,-0.0592,-0.0572,-0.0565,-0.0562,-0.0554,-0.0553,-0.0536,-0.0534,-0.0523,-0.0517,-0.0515,-0.0521,-0.0506,-0.0503,-0.0504,-0.0505,-0.0524,-0.0527,-0.053,0,0,0,0,0,-0.0629,-0.0627,-0.0618,-0.0614,-0.0587,-0.0572,-0.0569,-0.0556,-0.0554,-0.0551,-0.0544,-0.0534,-0.0523,-0.0517,-0.0513,-0.052,-0.0502,-0.0504,-0.0505,-0.0523,-0.0527,-0.053,0,0,0,0,0,0,-0.0653,-0.0625,-0.0615,-0.0606,-0.059,-0.057,-0.0568,-0.0558,-0.0549,-0.0551,-0.0537,-0.0534,-0.0533,-0.0525,-0.0519,-0.0524,-0.0513,-0.0513,-0.0528,-0.0531,-0.0534,-0.0537,-0.0505,0,0,0,0,0,-0.0654,-0.0643,-0.0619,-0.0613,-0.0606,-0.0587,-0.058,-0.057,-0.0559,-0.0555,-0.0544,-0.0538,-0.0535,-0.0532,-0.0525,-0.0524,-0.0521,-0.0529,-0.0531,-0.0533,-0.0535,-0.0551,-0.0555,-0.051,-0.051,-0.051,0,0,-0.0663,-0.0647,-0.0641,-0.0617,-0.0605,-0.0596,-0.0583,-0.0574,-0.0569,-0.0554,-0.0549,-0.0544,-0.0537,-0.0537,-0.0537,-0.0532,-0.0542,-0.0535,-0.0537,-0.0538,-0.0553,-0.0557,-0.0561,-0.0511,-0.0511,-0.051,0,0,-0.0679,-0.066,-0.0656,-0.064,-0.0621,-0.0607,-0.0605,-0.0584,-0.0578,-0.057,-0.0565,-0.0567,-0.0552,-0.0555,-0.0554,-0.0568,-0.0555,-0.0565,-0.0581,-0.0596,-0.06,-0.0603,-0.0591,-0.0593,-0.0567,-0.0568,-0.0568,0,-0.0697,-0.0678,-0.0655,-0.0647,-0.0635,-0.0613,-0.0608,-0.0599,-0.058,-0.0579,-0.0572,-0.0568,-0.0564,-0.0572,-0.058,-0.0574,-0.0571,-0.0567,-0.0599,-0.0603,-0.0606,-0.0593,-0.0595,-0.0569,-0.0569,-0.0568,-0.0568,0,-0.0705,-0.0689,-0.0687,-0.0665,-0.0652,-0.0643,-0.0623,-0.0616,-0.0606,-0.0596,-0.0598,-0.0594,-0.0592,-0.0595,-0.059,-0.0611,-0.0596,-0.06,-0.0591,-0.0612,-0.0596,-0.0598,-0.057,-0.057,-0.057,-0.0569,0,0,-0.0756,-0.0703,-0.0705,-0.0685,-0.0657,-0.0646,-0.0642,-0.0629,-0.0624,-0.0618,-0.0615,-0.0625,-0.0621,-0.0621,-0.0618,-0.0634,-0.065,-0.0627,-0.0627,-0.0613,-0.0664,-0.0583,-0.0577,-0.0661,-0.0662,-0.0662,-0.0639,0,-0.0773,-0.0752,-0.0724,-0.0706,-0.0689,-0.0663,-0.0656,-0.0643,-0.0631,-0.0622,-0.0628,-0.0621,-0.0631,-0.0625,-0.0648,-0.0642,-0.0658,-0.0655,-0.0647,-0.0647,-0.0571,-0.0578,-0.0494,-0.0461,-0.0641,-0.0641,-0.0642,0,-0.0794,-0.0771,-0.0754,-0.0704,-0.0697,-0.0688,-0.0665,-0.0652,-0.064,-0.063,-0.0634,-0.0626,-0.064,-0.0646,-0.0666,-0.0661,-0.067,-0.0672,-0.0671,-0.059,-0.0569,-0.0472,-0.0458,-0.0451,-0.0644,-0.0644,-0.0644,0,-0.0828,-0.0791,-0.0775,-0.076,-0.071,-0.0704,-0.0682,-0.0663,-0.064,-0.0633,-0.0608,-0.0633,-0.0615,-0.0651,-0.0644,-0.0661,-0.0653,-0.0677,-0.0614,-0.0608,-0.0532,-0.0517,-0.0509,-0.0707,-0.0707,-0.0707,-0.0707,0,-0.0846,-0.0828,-0.0788,-0.0775,-0.0752,-0.0718,-0.0696,-0.0676,-0.0644,-0.0606,-0.0612,-0.0575,-0.0616,-0.0606,-0.0637,-0.0607,-0.0649,-0.0611,-0.0599,-0.0533,-0.052,-0.0506,-0.0525,-0.0706,-0.0707,-0.0707,-0.0707,0,-0.0863,-0.0843,-0.0811,-0.0772,-0.0761,-0.0742,-0.0683,-0.0657,-0.0629,-0.0578,-0.0568,-0.0527,-0.0492,-0.0517,-0.0541,-0.0561,-0.0537,-0.0554,-0.0454,-0.043,-0.0366,-0.0388,-0.0353,-0.0342,-0.0488,-0.0486,-0.0484,0,-0.0854,-0.0846,-0.081,-0.0788,-0.0765,-0.0731,-0.07,-0.066,-0.0619,-0.0533,-0.0499,-0.044,-0.0381,-0.036,-0.037,-0.0386,-0.0426,-0.0341,-0.0367,-0.034,-0.0358,-0.0375,-0.0372,-0.0274,-0.027,-0.0268,-0.0265,0,-0.0828,-0.0829,-0.0803,-0.0764,-0.0733,-0.0688,-0.0637,-0.0606,-0.0543,-0.0485,-0.0386,-0.033,-0.0259,-0.0186,-0.0182,-0.021,-0.0296,-0.0283,-0.0296,-0.0216,-0.0196,-0.0185,-0.0299,-0.0241,-0.0243,-0.0245,-0.0247,-0.0248,-0.0802,-0.078,-0.0754,-0.0708,-0.0677,-0.0619,-0.0552,-0.0502,-0.042,-0.0275,-0.0273,-0.0105,-0.0047,0.0005,-0.0047,-0.0033,-0.0102,-0.005,-0.0085,-0.011,-0.0078,-0.0115,-0.002,-0.0021,-0.0022,-0.0023,-0.0023,0,-0.0735,-0.0715,-0.0683,-0.0618,-0.0552,-0.0554,-0.0476,-0.0384,-0.0261,-0.014,-0.0029,0.0173,0.0236,0.0238,0.0234,0.0173,0.0108,0.0131,0.0103,0.0087,0.003,0.0062,0.023,0.023,0.023,0.023,0.023,0.023,-0.0695,-0.0639,-0.0618,-0.0493,-0.0446,-0.032,-0.0254,-0.0152,-0.0036,0.0195,0.0381,0.0471,0.051,0.0399,0.0332,0.0288,0.022,0.0237,0.0162,0.0103,0.0082,0.0062,0.0087,0.0258,0.0258,0.0257,0.0257,0.0257]}],[{"header":{"parameterUnit":"m.s-1","parameterCategory":2,"la1":30.2991,"la2":30.254,"lo1":-89.0895,"lo2":-89.0444,"dy":0.0017,"dx":0.0017,"nx":28,"ny":28,"refTime":"2024-10-13T21:00:00:Z","depth":"2","parameterNumber":2,"parameterNumberName":"U-component_of_CURRENTS"},"data":[0,0,0,0,0,0,0,0,0,0,0,0,0,0,0,0,0,0,0,0,0,0,0,0,0,0,0,0,0,0,0,0,0,0,0,0,0,0,0,0,0,0,0,0,0,0,0,0,0,0,0,0,0,0,0,0,0,0,0.1367,0.1368,0,0.1389,0.1389,0.1389,0.1383,0.1382,0.1382,0.1381,0.1433,0.1435,0.1437,0,0,0,0,0,0,0,0,0,0,0,0,0,0.1365,0.1365,0.1367,0.1368,0.1368,0.1389,0.1389,0.1389,0.1383,0.1382,0.1382,0.1381,0.1433,0.1435,0.1437,0,0,0,0,0,0,0,0,0,0,0,0,0,0.1374,0.1365,0.1367,0.1367,0.1367,0.1389,0.1389,0.139,0.1383,0.1382,0.1381,0.1381,0.1432,0.1435,0.1438,0.1468,0,0,0.1446,0.1447,0,0,0,0,0,0,0,0,0.1374,0.1374,0.1367,0.1367,0.1367,0.1382,0.1408,0.1417,0.1383,0.1377,0.1381,0.1381,0.142,0.1423,0.1429,0.147,0.1473,0.1446,0.1448,0.1449,0.145,0,0,0,0,0,0,0,0.1373,0.1374,0.1376,0.1367,0.1368,0.1381,0.1381,0.1409,0.1403,0.1377,0.1377,0.138,0.142,0.1426,0.143,0.1473,0.1446,0.1448,0.145,0.1451,0.1593,0.1595,0,0,0,0,0,0,0.1369,0.1373,0.1375,0.1377,0.1369,0.1382,0.1382,0.1378,0.1402,0.1404,0.138,0.1379,0.1422,0.1427,0.1432,0.1485,0.1449,0.1451,0.1453,0.1591,0.1593,0.1595,0,0,0,0,0,0,0.1369,0.1369,0.1374,0.1376,0.1377,0.1382,0.1378,0.1379,0.1376,0.1403,0.1406,0.1375,0.1421,0.1428,0.1468,0.1486,0.1453,0.1455,0.1588,0.1591,0.1594,0.1581,0,0,0,0,0,0,0.1368,0.1368,0.136,0.1375,0.1377,0.1377,0.1379,0.138,0.1379,0.1378,0.1401,0.1405,0.1421,0.1464,0.1471,0.1489,0.1457,0.1585,0.159,0.1593,0.1579,0.1584,0.1588,0,0,0,0,0,0.1368,0.1356,0.1359,0.1359,0.1366,0.1377,0.1379,0.1381,0.138,0.1376,0.1408,0.1404,0.1495,0.1468,0.1475,0.1495,0.1583,0.1588,0.1593,0.1577,0.1583,0.1588,0,0,0,0,0,0,0.1343,0.1355,0.1358,0.1348,0.1359,0.1376,0.1369,0.1378,0.1399,0.1396,0.1425,0.1433,0.1484,0.1496,0.1466,0.1553,0.1541,0.1548,0.1527,0.1532,0.1537,0.1526,0.146,0,0,0,0,0,0.1337,0.1332,0.1349,0.1338,0.1342,0.1357,0.136,0.1363,0.1386,0.1392,0.1415,0.1454,0.1513,0.1524,0.1571,0.1603,0.1612,0.1627,0.1631,0.1634,0.1635,0.1678,0.1685,0.1611,0.1611,0.1611,0,0,0.132,0.1328,0.1323,0.1333,0.1339,0.1346,0.1356,0.1354,0.137,0.1397,0.1422,0.1472,0.1531,0.1582,0.1604,0.1586,0.1659,0.164,0.1642,0.1641,0.1683,0.169,0.1696,0.1614,0.1614,0.1613,0,0,0.129,0.1296,0.1283,0.1296,0.1306,0.1325,0.1324,0.1343,0.1358,0.1393,0.1439,0.1498,0.1551,0.1607,0.1644,0.1701,0.1692,0.1715,0.1708,0.175,0.1755,0.176,0.1764,0.1769,0.1701,0.1701,0.1701,0,0.1268,0.1261,0.1281,0.1279,0.1288,0.1316,0.1313,0.1341,0.1373,0.1399,0.1397,0.1525,0.157,0.1661,0.1688,0.1708,0.1713,0.1676,0.1751,0.1756,0.1762,0.1765,0.1771,0.1701,0.1701,0.1701,0.1701,0,0.1239,0.1233,0.1227,0.1241,0.1257,0.1255,0.1301,0.1326,0.1352,0.1384,0.1468,0.154,0.1609,0.1648,0.1685,0.176,0.1745,0.1759,0.1725,0.1767,0.1769,0.1775,0.1701,0.1701,0.1701,0.1701,0,0,0.1185,0.1201,0.1197,0.1201,0.1236,0.1246,0.1288,0.1337,0.1365,0.1418,0.1459,0.1585,0.1613,0.166,0.1718,0.1762,0.1808,0.1768,0.1771,0.1749,0.1867,0.1691,0.1681,0.1825,0.1826,0.1828,0.1845,0,0.1151,0.1138,0.1163,0.1163,0.1165,0.1219,0.1257,0.1311,0.1361,0.141,0.1505,0.1566,0.1621,0.1651,0.1711,0.1794,0.1828,0.18,0.185,0.1851,0.1671,0.1684,0.1582,0.1575,0.1851,0.1852,0.1853,0,0.1118,0.1115,0.1102,0.1134,0.114,0.1152,0.122,0.1255,0.1347,0.1383,0.146,0.1524,0.1625,0.165,0.1786,0.176,0.1812,0.1866,0.1867,0.1712,0.1687,0.1585,0.1576,0.1864,0.1863,0.1862,0.1861,0,0.108,0.1079,0.1067,0.1075,0.1116,0.1131,0.1159,0.1241,0.1274,0.1357,0.1378,0.1501,0.1551,0.1651,0.1768,0.1772,0.1892,0.1905,0.1797,0.1785,0.1711,0.1688,0.199,0.199,0.199,0.199,0.199,0,0.1049,0.1041,0.1043,0.1041,0.1042,0.1081,0.1101,0.1156,0.1216,0.1249,0.1346,0.1393,0.1555,0.1647,0.1746,0.1772,0.187,0.1787,0.1777,0.17,0.1677,0.1946,0.1941,0.199,0.199,0.199,0.199,0,0.1019,0.1018,0.101,0.1024,0.1025,0.1026,0.1053,0.1073,0.1125,0.1169,0.1187,0.1315,0.1415,0.1559,0.1717,0.1709,0.178,0.1773,0.1643,0.1614,0.1647,0.1642,0.162,0.1614,0.1609,0.1605,0.1601,0,0.0999,0.0989,0.0987,0.0977,0.0978,0.0975,0.0981,0.1028,0.1046,0.1123,0.114,0.1238,0.1311,0.143,0.1486,0.1565,0.1685,0.1441,0.1419,0.1616,0.161,0.1613,0.1614,0.1335,0.1329,0.1325,0.1321,0,0.0964,0.0964,0.0958,0.0936,0.0925,0.0923,0.0925,0.0933,0.0989,0.1021,0.1083,0.1137,0.1213,0.1225,0.1258,0.1302,0.1407,0.1339,0.1625,0.1406,0.1338,0.1334,0.1348,0.1281,0.1285,0.1288,0.129,0.1292,0.0929,0.0921,0.0905,0.0891,0.0882,0.0877,0.0879,0.0897,0.0922,0.0965,0.1019,0.1028,0.1005,0.0988,0.1028,0.1056,0.1132,0.1088,0.1107,0.1131,0.1056,0.0978,0.084,0.0842,0.0843,0.0844,0.0845,0,0.0878,0.0884,0.0857,0.0848,0.0837,0.085,0.0849,0.0837,0.0872,0.0873,0.0919,0.0769,0.0761,0.0797,0.0768,0.0738,0.0826,0.0722,0.0842,0.0878,0.0911,0.0833,0.0554,0.0554,0.0554,0.0553,0,0,0.0847,0.0819,0.0812,0.0795,0.0807,0.0791,0.08,0.0782,0.0752,0.0701,0.066,0.0689,0.0669,0.0553,0.0565,0.0562,0.073,0.0554,0.0776,0.0947,0.098,0.1093,0.1005,0,0,0,0,0]},{"header":{"parameterUnit":"m.s-1","parameterCategory":2,"la1":30.2991,"la2":30.254,"lo1":-89.0895,"lo2":-89.0444,"dy":0.0017,"dx":0.0017,"nx":28,"ny":28,"refTime":"2024-10-13T21:00:00:Z","depth":"2","parameterNumber":3,"parameterNumberName":"V-component_of_CURRENTS"},"data":[0,0,0,0,0,0,0,0,0,0,0,0,0,0,0,0,0,0,0,0,0,0,0,0,0,0,0,0,0,0,0,0,0,0,0,0,0,0,0,0,0,0,0,0,0,0,0,0,0,0,0,0,0,0,0,0,0,0,0.0575,0.0575,0,0.0577,0.0576,0.0576,0.0528,0.0527,0.0526,0.0525,0.0417,0.0415,0.0413,0,0,0,0,0,0,0,0,0,0,0,0,0,0.0527,0.0528,0.0575,0.0575,0.0575,0.0577,0.0576,0.0576,0.0529,0.0527,0.0526,0.0525,0.0418,0.0416,0.0413,0,0,0,0,0,0,0,0,0,0,0,0,0,0.0538,0.0528,0.0575,0.0553,0.0552,0.0577,0.0576,0.0576,0.0529,0.0527,0.0526,0.0524,0.0418,0.0416,0.0413,0.0427,0,0,0.0404,0.0403,0,0,0,0,0,0,0,0,0.0537,0.0539,0.0556,0.0555,0.0553,0.0553,0.052,0.0522,0.0529,0.0535,0.0525,0.0523,0.0455,0.0449,0.0451,0.0422,0.0418,0.0404,0.0402,0.0401,0.04,0,0,0,0,0,0,0,0.0536,0.0539,0.0573,0.0557,0.0555,0.0543,0.0542,0.052,0.05,0.0534,0.0532,0.0536,0.0453,0.0454,0.0448,0.0416,0.0404,0.0402,0.04,0.0399,0.0352,0.0353,0,0,0,0,0,0,0.0543,0.0539,0.0573,0.0573,0.0544,0.0545,0.0545,0.0552,0.0503,0.0495,0.0537,0.0534,0.046,0.0451,0.0444,0.043,0.0401,0.0398,0.0397,0.0352,0.0352,0.0353,0,0,0,0,0,0,0.0542,0.0547,0.0573,0.0557,0.056,0.0548,0.0557,0.0553,0.0546,0.0507,0.0496,0.0533,0.0458,0.0448,0.0427,0.0426,0.0397,0.0395,0.0351,0.0352,0.0353,0.042,0,0,0,0,0,0,0.0541,0.0546,0.0551,0.0558,0.0561,0.059,0.0559,0.0555,0.0553,0.0548,0.05,0.0489,0.0456,0.0431,0.0424,0.0422,0.0392,0.0351,0.0352,0.0352,0.0417,0.0423,0.0428,0,0,0,0,0,0.0539,0.055,0.0552,0.0555,0.057,0.0591,0.0592,0.0575,0.0555,0.0561,0.0528,0.049,0.0431,0.043,0.0421,0.0418,0.035,0.0351,0.0352,0.0415,0.0422,0.0428,0,0,0,0,0,0,0.0523,0.0547,0.0548,0.0563,0.0579,0.0584,0.0587,0.0579,0.0562,0.0547,0.0503,0.0491,0.0472,0.044,0.044,0.0407,0.0381,0.0381,0.0432,0.0438,0.0443,0.0457,0.039,0,0,0,0,0,0.0528,0.0542,0.0565,0.0575,0.0587,0.0589,0.0593,0.0587,0.0576,0.0566,0.0535,0.0497,0.0474,0.0452,0.0428,0.0413,0.0388,0.0403,0.0408,0.0413,0.0418,0.0393,0.0397,0.0356,0.0356,0.0356,0,0,0.0521,0.0538,0.0543,0.0573,0.0581,0.0604,0.0586,0.0597,0.0606,0.0556,0.0547,0.0519,0.0477,0.0462,0.0449,0.0431,0.0412,0.0414,0.0418,0.0421,0.0395,0.0399,0.0402,0.0357,0.0357,0.0357,0,0,0.0518,0.0536,0.0548,0.0572,0.0597,0.0608,0.0614,0.0623,0.0618,0.0617,0.0582,0.0565,0.0519,0.0501,0.0482,0.0504,0.0447,0.0479,0.0508,0.0485,0.0488,0.049,0.0468,0.0468,0.0474,0.0474,0.0474,0,0.0505,0.0532,0.0554,0.058,0.06,0.0612,0.0634,0.0643,0.0639,0.0641,0.0617,0.0577,0.0544,0.0534,0.0535,0.0517,0.0486,0.0489,0.0492,0.0494,0.0496,0.0472,0.0471,0.0477,0.0477,0.0476,0.0476,0,0.0518,0.0542,0.0554,0.0594,0.0621,0.0643,0.0671,0.0685,0.0679,0.068,0.0673,0.064,0.0608,0.0598,0.0569,0.0562,0.0531,0.051,0.0479,0.0504,0.0477,0.0475,0.0482,0.0481,0.048,0.0479,0,0,0.0481,0.0548,0.0548,0.0579,0.0633,0.0656,0.069,0.0724,0.0737,0.073,0.0738,0.071,0.0683,0.0661,0.0625,0.0608,0.0596,0.0557,0.0555,0.0541,0.0532,0.0536,0.0533,0.0562,0.0562,0.0562,0.0511,0,0.0481,0.0521,0.0561,0.0609,0.0643,0.0686,0.0719,0.0751,0.0761,0.0772,0.0756,0.0734,0.0708,0.0676,0.0665,0.0611,0.0591,0.0611,0.0505,0.0503,0.0507,0.0532,0.0495,0.0448,0.0509,0.0509,0.0508,0,0.0483,0.0515,0.0544,0.0632,0.065,0.0667,0.0729,0.0759,0.0791,0.0794,0.0787,0.0767,0.0747,0.0711,0.0653,0.0658,0.0598,0.0564,0.056,0.0539,0.0502,0.0431,0.0441,0.0504,0.0505,0.0505,0.0505,0,0.0448,0.0515,0.0533,0.0559,0.0643,0.0655,0.0691,0.074,0.0766,0.0779,0.0785,0.0775,0.0742,0.0694,0.0632,0.0622,0.057,0.0545,0.05,0.0499,0.0437,0.0431,0.05,0.05,0.05,0.05,0.05,0,0.0457,0.0485,0.0503,0.0519,0.0549,0.0613,0.0637,0.0681,0.072,0.0747,0.0762,0.0785,0.0729,0.0703,0.0645,0.0577,0.0573,0.0515,0.049,0.046,0.0457,0.0479,0.0477,0.0498,0.0499,0.0499,0.0499,0,0.0457,0.046,0.0488,0.0526,0.0529,0.0543,0.0595,0.0622,0.0659,0.0692,0.0688,0.0757,0.074,0.0699,0.0626,0.058,0.0521,0.049,0.0466,0.0441,0.046,0.0462,0.0436,0.0436,0.0436,0.0436,0.0435,0,0.0484,0.0477,0.0463,0.0451,0.046,0.0477,0.0494,0.0559,0.0592,0.0689,0.0709,0.0726,0.0762,0.0697,0.0605,0.0509,0.0519,0.042,0.0408,0.0477,0.0455,0.0458,0.046,0.0345,0.0344,0.0343,0.0342,0,0.0533,0.048,0.0489,0.0433,0.0418,0.0442,0.0467,0.0497,0.0583,0.0634,0.0734,0.0776,0.0731,0.0662,0.0543,0.0485,0.044,0.0404,0.0467,0.0381,0.039,0.037,0.0375,0.0336,0.0337,0.0337,0.0338,0.0338,0.0546,0.0535,0.0474,0.0439,0.0414,0.0414,0.046,0.0509,0.0585,0.0701,0.0737,0.0796,0.073,0.0587,0.0476,0.036,0.0392,0.0345,0.0347,0.0349,0.0362,0.0373,0.0317,0.0317,0.0318,0.0318,0.0318,0,0.0553,0.0517,0.0492,0.0446,0.0429,0.0399,0.0457,0.0537,0.064,0.0698,0.0776,0.0703,0.063,0.0547,0.034,0.0247,0.0229,0.0236,0.022,0.0227,0.0233,0.024,0.0162,0.0161,0.016,0.016,0,0,0.0546,0.0514,0.0494,0.0465,0.0427,0.0446,0.0486,0.0589,0.066,0.0748,0.0755,0.08,0.0668,0.0499,0.0368,0.0247,0.026,0.0232,0.0367,0.037,0.0376,0.0307,0.0327,0,0,0,0,0]}],[{"header":{"parameterUnit":"m.s-1","parameterCategory":2,"la1":30.2991,"la2":30.254,"lo1":-89.0895,"lo2":-89.0444,"dy":0.0017,"dx":0.0017,"nx":28,"ny":28,"refTime":"2024-10-13T21:00:00:Z","depth":"4","parameterNumber":2,"parameterNumberName":"U-component_of_CURRENTS"},"data":[0,0,0,0,0,0,0,0,0,0,0,0,0,0,0,0,0,0,0,0,0,0,0,0,0,0,0,0,0,0,0,0,0,0,0,0,0,0,0,0,0,0,0,0,0,0,0,0,0,0,0,0,0,0,0,0,0,0,-0.0388,-0.0387,0,-0.0342,-0.0341,-0.0341,-0.0252,-0.025,-0.0248,-0.0246,-0.0234,-0.0235,-0.0237,0,0,0,0,0,0,0,0,0,0,0,0,0,-0.0439,-0.0439,-0.0388,-0.0387,-0.0386,-0.0342,-0.0341,-0.0341,-0.0252,-0.025,-0.0247,-0.0245,-0.0233,-0.0235,-0.0237,0,0,0,0,0,0,0,0,0,0,0,0,0,-0.041,-0.0438,-0.0388,-0.0334,-0.0329,-0.0342,-0.0341,-0.0341,-0.0253,-0.025,-0.0247,-0.0244,-0.0233,-0.0235,-0.0237,-0.0313,0,0,-0.0244,-0.0245,0,0,0,0,0,0,0,0,-0.0412,-0.0409,-0.0343,-0.0338,-0.0332,-0.0297,-0.0355,-0.0332,-0.0254,-0.0285,-0.0246,-0.0243,-0.0258,-0.0258,-0.026,-0.0312,-0.0312,-0.0245,-0.0246,-0.0247,-0.0248,0,0,0,0,0,0,0,-0.0414,-0.0411,-0.0373,-0.0342,-0.0335,-0.0326,-0.0318,-0.035,-0.0292,-0.0282,-0.0275,-0.0266,-0.0255,-0.0258,-0.0259,-0.0311,-0.0245,-0.0247,-0.0248,-0.0249,-0.0315,-0.0316,0,0,0,0,0,0,-0.0415,-0.0413,-0.0374,-0.0371,-0.0362,-0.0327,-0.0319,-0.0314,-0.0291,-0.0283,-0.0268,-0.0262,-0.0256,-0.0257,-0.0259,-0.0214,-0.0247,-0.0249,-0.0251,-0.0315,-0.0315,-0.0316,0,0,0,0,0,0,-0.0416,-0.0412,-0.0376,-0.0388,-0.0382,-0.0329,-0.0324,-0.0314,-0.024,-0.028,-0.0272,-0.0195,-0.0253,-0.0255,-0.0244,-0.0218,-0.025,-0.0252,-0.0315,-0.0315,-0.0316,-0.0211,0,0,0,0,0,0,-0.0418,-0.0413,-0.0386,-0.0388,-0.0381,-0.0342,-0.0326,-0.0315,-0.0243,-0.0231,-0.0217,-0.0216,-0.0251,-0.0241,-0.0247,-0.0222,-0.0254,-0.0314,-0.0315,-0.0315,-0.0214,-0.0208,-0.0203,0,0,0,0,0,-0.042,-0.0401,-0.0385,-0.0379,-0.0354,-0.034,-0.0335,-0.029,-0.0241,-0.021,-0.0205,-0.0213,-0.0249,-0.0243,-0.025,-0.0225,-0.0314,-0.0315,-0.0315,-0.0217,-0.0209,-0.0203,0,0,0,0,0,0,-0.0398,-0.0391,-0.0373,-0.0347,-0.0324,-0.0322,-0.0279,-0.025,-0.022,-0.0183,-0.0215,-0.0217,-0.0202,-0.0236,-0.0227,-0.0252,-0.0285,-0.0287,-0.0207,-0.0201,-0.0195,-0.0176,-0.0256,0,0,0,0,0,-0.0387,-0.0367,-0.036,-0.0329,-0.031,-0.028,-0.0254,-0.022,-0.0206,-0.0182,-0.0169,-0.0182,-0.0229,-0.0223,-0.0259,-0.0265,-0.0325,-0.0259,-0.0253,-0.0247,-0.024,-0.0347,-0.035,-0.0318,-0.0318,-0.0318,0,0,-0.037,-0.0358,-0.0345,-0.0321,-0.0292,-0.0269,-0.0254,-0.019,-0.0168,-0.0193,-0.0129,-0.0152,-0.0228,-0.0239,-0.0235,-0.0247,-0.0283,-0.0249,-0.0243,-0.0239,-0.0349,-0.0352,-0.0354,-0.0319,-0.0319,-0.0319,0,0,-0.034,-0.0308,-0.0285,-0.0261,-0.0206,-0.0204,-0.0167,-0.0121,-0.0089,-0.0049,-0.0085,-0.01,-0.0102,-0.0186,-0.023,-0.0223,-0.0253,-0.0199,-0.0145,-0.0248,-0.0251,-0.0255,-0.0304,-0.0313,-0.0192,-0.0191,-0.0191,0,-0.031,-0.029,-0.0271,-0.0237,-0.0209,-0.0166,-0.0129,-0.0115,-0.0064,-0.0067,-0.0002,-0.007,-0.0103,-0.0213,-0.0179,-0.0211,-0.0234,-0.0157,-0.0239,-0.0244,-0.025,-0.03,-0.0311,-0.0186,-0.0187,-0.0187,-0.0188,0,-0.0284,-0.0241,-0.0214,-0.0173,-0.0142,-0.0094,-0.0079,-0.0032,0.0032,0.0027,0.0013,-0.0036,-0.0076,-0.0093,-0.0109,-0.0177,-0.0167,-0.0221,-0.0249,-0.0246,-0.0299,-0.0313,-0.0179,-0.0181,-0.0183,-0.0184,0,0,-0.0284,-0.0216,-0.0199,-0.0176,-0.0096,-0.0088,-0.004,-0.0039,-0.0044,0.0025,-0.0003,-0.004,-0.0022,-0.0073,-0.0117,-0.018,-0.0211,-0.0161,-0.0169,-0.0193,-0.0368,-0.023,-0.0232,-0.0248,-0.025,-0.0252,-0.0376,0,-0.026,-0.0219,-0.0177,-0.0122,-0.0098,-0.0046,-0.0036,-0.0021,0.0001,-0.0015,-0.0064,-0.0099,-0.0037,-0.004,-0.0081,-0.0204,-0.0243,-0.0168,-0.038,-0.0386,-0.0253,-0.0244,-0.026,-0.0387,-0.039,-0.0392,-0.0394,0,-0.0243,-0.0227,-0.0178,-0.0133,-0.0116,-0.0082,-0.007,-0.0057,-0.009,-0.0063,-0.0069,-0.0084,-0.0148,-0.0103,-0.0246,-0.0175,-0.0222,-0.0309,-0.0319,-0.0237,-0.0274,-0.0402,-0.042,-0.0418,-0.0416,-0.0414,-0.0413,0,-0.0284,-0.0221,-0.0195,-0.0169,-0.012,-0.0092,-0.0072,-0.0073,-0.0094,-0.0105,-0.0119,-0.0157,-0.0214,-0.0259,-0.0321,-0.0269,-0.0506,-0.0502,-0.044,-0.0431,-0.0566,-0.0562,-0.0612,-0.0612,-0.0611,-0.0611,-0.0611,0,-0.0273,-0.0241,-0.0219,-0.02,-0.0189,-0.0138,-0.0138,-0.0115,-0.0144,-0.0174,-0.0148,-0.0183,-0.0245,-0.0351,-0.0365,-0.0421,-0.0541,-0.0414,-0.0456,-0.0514,-0.0503,-0.0574,-0.0568,-0.0616,-0.0615,-0.0614,-0.0613,0,-0.025,-0.0242,-0.0219,-0.0197,-0.0193,-0.0176,-0.0159,-0.0175,-0.0194,-0.0235,-0.0229,-0.0263,-0.0291,-0.0386,-0.0529,-0.0511,-0.0592,-0.0601,-0.0637,-0.0683,-0.0421,-0.0408,-0.0492,-0.0488,-0.0485,-0.0482,-0.048,0,-0.0215,-0.0212,-0.0217,-0.0217,-0.0182,-0.0176,-0.0165,-0.0174,-0.0185,-0.0257,-0.0276,-0.0332,-0.0314,-0.0445,-0.0492,-0.054,-0.0537,-0.0604,-0.047,-0.0377,-0.0411,-0.0403,-0.0395,-0.0475,-0.0474,-0.0473,-0.0472,0,-0.0163,-0.0173,-0.0164,-0.0186,-0.0176,-0.0176,-0.0164,-0.0196,-0.0204,-0.0258,-0.0269,-0.0273,-0.0331,-0.0343,-0.042,-0.0451,-0.0562,-0.0569,-0.0573,-0.0448,-0.0358,-0.0392,-0.0388,-0.0461,-0.0463,-0.0464,-0.0464,0,-0.0119,-0.0116,-0.0146,-0.0146,-0.0149,-0.0154,-0.016,-0.0156,-0.0187,-0.0247,-0.0241,-0.0274,-0.0309,-0.03,-0.0363,-0.0369,-0.0308,-0.0324,-0.034,-0.0353,-0.0239,-0.01,-0.015,0,0,0,0,0,-0.0092,-0.0112,-0.0113,-0.0139,-0.0132,-0.0141,-0.0148,-0.0161,-0.0201,-0.0178,-0.0205,-0.0198,-0.0196,-0.0228,-0.0191,-0.0269,-0.0327,-0.0228,-0.0357,-0.0399,-0.0412,-0.0285,0,0,0,0,0,0,-0.0095,-0.0103,-0.0117,-0.0127,-0.0134,-0.0138,-0.0137,-0.0158,-0.0147,-0.0175,-0.0168,-0.0179,-0.0181,-0.0205,-0.0187,-0.0193,-0.0266,-0.0239,-0.0238,-0.0392,-0.0404,-0.0414,-0.0287,0,0,0,0,0]},{"header":{"parameterUnit":"m.s-1","parameterCategory":2,"la1":30.2991,"la2":30.254,"lo1":-89.0895,"lo2":-89.0444,"dy":0.0017,"dx":0.0017,"nx":28,"ny":28,"refTime":"2024-10-13T21:00:00:Z","depth":"4","parameterNumber":3,"parameterNumberName":"V-component_of_CURRENTS"},"data":[0,0,0,0,0,0,0,0,0,0,0,0,0,0,0,0,0,0,0,0,0,0,0,0,0,0,0,0,0,0,0,0,0,0,0,0,0,0,0,0,0,0,0,0,0,0,0,0,0,0,0,0,0,0,0,0,0,0,0.0099,0.0099,0,0.0013,0.0012,0.0011,-0.0032,-0.0032,-0.0032,-0.0031,-0.0107,-0.0109,-0.0112,0,0,0,0,0,0,0,0,0,0,0,0,0,0.0182,0.0181,0.0099,0.0099,0.0098,0.0013,0.0012,0.001,-0.0032,-0.0032,-0.0031,-0.0031,-0.0106,-0.0109,-0.0112,0,0,0,0,0,0,0,0,0,0,0,0,0,0.0123,0.0181,0.01,0.0069,0.0066,0.0014,0.0012,0.001,-0.0032,-0.0032,-0.0031,-0.0031,-0.0105,-0.0109,-0.0112,-0.0145,0,0,-0.0123,-0.0125,0,0,0,0,0,0,0,0,0.0126,0.0119,0.0075,0.0072,0.0068,0.0005,0.0013,-0.004,-0.0033,0.0001,-0.0031,-0.0031,-0.0066,-0.0073,-0.0096,-0.0148,-0.0152,-0.0123,-0.0126,-0.0127,-0.0128,0,0,0,0,0,0,0,0.013,0.0122,0.0061,0.0074,0.007,0.0045,0.0037,0.0003,-0.0038,-0.0002,-0.0004,-0.0008,-0.0069,-0.0093,-0.0098,-0.0153,-0.0123,-0.0126,-0.0129,-0.013,-0.0226,-0.0226,0,0,0,0,0,0,0.0151,0.0126,0.0064,0.0059,0.0103,0.0044,0.0035,0.0022,-0.0038,-0.0045,-0.0008,-0.0009,-0.0087,-0.0094,-0.0101,-0.0143,-0.0127,-0.013,-0.0132,-0.0225,-0.0226,-0.0226,0,0,0,0,0,0,0.0152,0.0145,0.0068,0.0095,0.0084,0.0043,0.0028,0.002,-0.0005,-0.0042,-0.0049,-0.0024,-0.0087,-0.0096,-0.0139,-0.0146,-0.0132,-0.0135,-0.0225,-0.0225,-0.0226,-0.0226,0,0,0,0,0,0,0.0155,0.0146,0.0141,0.0096,0.0083,0.0032,0.0027,0.0018,-0.0006,-0.0009,-0.0058,-0.0065,-0.0087,-0.0134,-0.0143,-0.015,-0.0138,-0.0224,-0.0225,-0.0226,-0.0225,-0.0227,-0.0227,0,0,0,0,0,0.0158,0.015,0.0141,0.0133,0.0077,0.0032,0.0021,-0.0008,-0.0007,-0.0027,-0.0058,-0.0063,-0.0144,-0.0138,-0.0148,-0.0156,-0.0224,-0.0225,-0.0226,-0.0225,-0.0226,-0.0227,0,0,0,0,0,0,0.0184,0.0144,0.0133,0.0113,0.0075,0.0026,0.0013,-0.0008,-0.005,-0.0046,-0.008,-0.009,-0.013,-0.0143,-0.0135,-0.0185,-0.0181,-0.0184,-0.0176,-0.0178,-0.0179,-0.0166,-0.0141,0,0,0,0,0,0.0189,0.0173,0.0127,0.0113,0.0097,0.0055,0.0034,0.0012,-0.0026,-0.0044,-0.0075,-0.0105,-0.0143,-0.016,-0.0194,-0.0226,-0.0214,-0.0234,-0.0235,-0.0236,-0.0232,-0.0239,-0.024,-0.0229,-0.0229,-0.0229,0,0,0.0199,0.0174,0.0167,0.0118,0.0091,0.0056,0.0042,0.0013,-0.0019,-0.0045,-0.0089,-0.0116,-0.0154,-0.0193,-0.0209,-0.0204,-0.0226,-0.0237,-0.0237,-0.0233,-0.024,-0.0241,-0.0242,-0.023,-0.023,-0.023,0,0,0.0214,0.0187,0.0179,0.0141,0.01,0.0064,0.0057,0.0006,-0.0018,-0.006,-0.0089,-0.0122,-0.0168,-0.0206,-0.0228,-0.0255,-0.0236,-0.0256,-0.0249,-0.0256,-0.0257,-0.0257,-0.0212,-0.0209,-0.0251,-0.0251,-0.0251,0,0.0234,0.0213,0.0169,0.0143,0.0122,0.0069,0.0051,0.0002,-0.0056,-0.0076,-0.0067,-0.0147,-0.0176,-0.0239,-0.0241,-0.0259,-0.0235,-0.0242,-0.0256,-0.0257,-0.0258,-0.0211,-0.0208,-0.0251,-0.0251,-0.0251,-0.0251,0,0.0225,0.0215,0.0207,0.0156,0.0114,0.0096,0.0026,-0.0015,-0.0035,-0.0075,-0.0125,-0.0166,-0.02,-0.0222,-0.0237,-0.0266,-0.0237,-0.026,-0.0251,-0.0258,-0.0209,-0.0205,-0.0251,-0.0251,-0.0251,-0.0251,0,0,0.0282,0.022,0.0229,0.0214,0.0129,0.0102,0.0034,-0.0031,-0.0065,-0.0111,-0.0144,-0.0204,-0.0205,-0.023,-0.0257,-0.0271,-0.0245,-0.0255,-0.0255,-0.0204,-0.0211,-0.0222,-0.0218,-0.0266,-0.0266,-0.0266,-0.0163,0,0.0308,0.0298,0.0242,0.0219,0.0203,0.012,0.0064,-0.0012,-0.0069,-0.0123,-0.0174,-0.02,-0.0217,-0.0207,-0.0234,-0.0261,-0.0239,-0.0268,-0.0217,-0.0214,-0.022,-0.0217,-0.0267,-0.016,-0.0159,-0.0158,-0.0158,0,0.032,0.0321,0.0334,0.0266,0.0252,0.0241,0.0153,0.0087,-0.0029,-0.0063,-0.0117,-0.0166,-0.0205,-0.02,-0.0224,-0.0235,-0.0202,-0.0213,-0.0209,-0.022,-0.022,-0.016,-0.015,-0.0151,-0.0152,-0.0152,-0.0152,0,0.0397,0.0371,0.0404,0.0383,0.0304,0.0315,0.0271,0.015,0.008,0.0008,-0.0038,-0.0106,-0.0115,-0.0128,-0.0146,-0.0168,-0.0156,-0.0191,-0.0162,-0.0159,-0.0178,-0.0179,-0.0164,-0.0164,-0.0164,-0.0165,-0.0165,0,0.0415,0.0443,0.0478,0.0493,0.0507,0.0432,0.0413,0.0331,0.0228,0.0127,0.0043,-0.0045,-0.0095,-0.0129,-0.0127,-0.0128,-0.0122,-0.015,-0.0145,-0.0175,-0.0178,-0.0173,-0.0175,-0.0161,-0.0162,-0.0162,-0.0163,0,0.0455,0.048,0.0508,0.0527,0.0548,0.0559,0.05,0.0451,0.0369,0.0237,0.0224,0.0042,-0.0021,-0.0059,-0.0077,-0.0091,-0.0091,-0.0069,-0.005,-0.0046,-0.0086,-0.009,-0.0049,-0.0049,-0.0048,-0.0048,-0.0048,0,0.0473,0.0516,0.057,0.0588,0.0621,0.0647,0.0638,0.0553,0.0468,0.0253,0.0177,0.0083,-0.0031,-0.0026,-0.0091,-0.0055,-0.0059,-0.0009,-0.0103,-0.0081,-0.008,-0.0084,-0.0087,-0.0048,-0.0048,-0.0048,-0.0048,0,0.05,0.0546,0.056,0.0629,0.0671,0.0658,0.0649,0.0606,0.0451,0.0359,0.0181,0.0096,0.0009,-0.0049,0.0014,0.0008,-0.004,-0.0008,-0.001,-0.0098,-0.0079,-0.0079,-0.0083,-0.0047,-0.0047,-0.0047,-0.0047,0,0.053,0.0538,0.0589,0.0626,0.0663,0.0671,0.0661,0.0594,0.0521,0.0294,0.0232,0.0099,0.0012,-0.0018,-0.0005,0.0024,-0.0009,0.0015,0.0011,0.001,-0.0038,-0.0009,0.0058,0,0,0,0,0,0.0529,0.0535,0.0577,0.0604,0.0637,0.0668,0.0638,0.0606,0.0477,0.0383,0.0316,0.0226,0.0141,0.0056,0.0092,-0.0027,-0.0004,0.0009,0.0026,-0.0044,-0.0044,-0.0117,0,0,0,0,0,0,0.0515,0.0545,0.0568,0.0601,0.0624,0.0656,0.0652,0.0573,0.0517,0.0384,0.0359,0.0246,0.019,0.0153,0.0098,0.008,0.0097,-0.0058,-0.0057,-0.0043,-0.0044,-0.0045,-0.012,0,0,0,0,0]}]]